Weather History for KRSL - February, 2014

Change the Weather History Date:

Wednesday, February 19, 2014

  Actual Average Record
Temperature  
Mean Temperature 42 °F -  
Max Temperature 55 °F 49 °F 70 °F (1968)
Min Temperature 30 °F 23 °F 3 °F (1978)
Degree Days  
Heating Degree Days 22    
Moisture  
Dew Point 25 °F    
Average Humidity 52    
Maximum Humidity 79    
Minimum Humidity 30    
Precipitation  
Precipitation 0.00 in - - ()
Sea Level Pressure  
Sea Level Pressure 29.78 in    
Wind  
Wind Speed 9 mph (SE)    
Max Wind Speed 20 mph    
Max Gust Speed -    
Visibility 10 miles    
Events      
Averages and records for this station are not official NWS values.
T = Trace of Precipitation, MM = Missing Value Source: NWS Daily Summary

Daily Weather History Graph

Daily Weather History Graph

Search for Another Location

Airport or City:

Trip Planner

Search our weather history database for the weather conditions in past years. The results will help you decide how hot, cold, wet, or windy it might be!

Date:

Astronomy

Feb. 19, 2014 Rise Set
Actual Time 7:21 AM CST 6:17 PM CST
Civil Twilight 6:54 AM CST 6:44 PM CST
Nautical Twilight 6:23 AM CST 7:15 PM CST
Astronomical Twilight 5:52 AM CST 7:46 PM CST
Moon 11:09 PM CST (2/19) 9:31 AM CST (2/19)
Length of Visible Light 11h 50m
Length of Day
10h 55m
Waning Gibbous, 79% of the Moon is Illuminated
Feb 19
Waning Gibbous
Feb 22
Last Quarter
Mar 1
New
Mar 8
First Quarter
Mar 16
Full

Hourly Weather History & Observations

Time (CST) Temp. Windchill Dew Point Humidity Pressure Visibility Wind Dir Wind Speed Gust Speed Precip Events Conditions
12:53 AM 39.0 °F 34.8 °F 21.0 °F 49% 29.99 in 10.0 mi NNW 5.8 mph - N/A   Clear
1:53 AM 37.0 °F 34.5 °F 21.9 °F 54% 29.99 in 10.0 mi NW 3.5 mph - N/A   Clear
2:53 AM 36.0 °F 33.3 °F 19.9 °F 52% 29.98 in 10.0 mi North 3.5 mph - N/A   Clear
3:53 AM 30.0 °F 25.2 °F 23.0 °F 75% 29.99 in 10.0 mi SSW 4.6 mph - N/A   Clear
4:53 AM 32.0 °F - 23.0 °F 69% 29.97 in 10.0 mi Calm Calm - N/A   Clear
5:53 AM 37.0 °F 32.4 °F 19.9 °F 50% 29.95 in 10.0 mi SE 5.8 mph - N/A   Clear
6:53 AM 33.1 °F 26.1 °F 24.1 °F 70% 29.96 in 10.0 mi SSE 8.1 mph - N/A   Clear
7:53 AM 36.0 °F 28.5 °F 25.0 °F 64% 29.95 in 10.0 mi SE 10.4 mph - N/A   Clear
8:53 AM 39.9 °F 32.9 °F 26.1 °F 58% 29.94 in 10.0 mi SSE 11.5 mph - N/A   Clear
9:53 AM 45.0 °F 38.2 °F 27.0 °F 49% 29.93 in 10.0 mi SSE 15.0 mph - N/A   Clear
10:53 AM 50.0 °F - 26.1 °F 39% 29.92 in 10.0 mi SSE 15.0 mph - N/A   Clear
11:53 AM 53.1 °F - 25.0 °F 34% 29.87 in 10.0 mi SSE 19.6 mph - N/A   Clear
12:53 PM 52.0 °F - 26.1 °F 37% 29.81 in 10.0 mi SSE 16.1 mph - N/A   Mostly Cloudy
1:53 PM 54.0 °F - 27.0 °F 35% 29.76 in 10.0 mi South 12.7 mph - N/A   Overcast
2:53 PM 55.0 °F - 25.0 °F 31% 29.68 in 10.0 mi SE 12.7 mph - N/A   Clear
3:53 PM 55.9 °F - 25.0 °F 30% 29.64 in 10.0 mi ESE 18.4 mph - N/A   Clear
4:53 PM 55.9 °F - 26.1 °F 32% 29.62 in 10.0 mi SE 17.3 mph - N/A   Partly Cloudy
5:53 PM 52.0 °F - 28.0 °F 40% 29.61 in 10.0 mi SSE 15.0 mph - N/A   Clear
6:53 PM 48.0 °F - 28.9 °F 48% 29.62 in 10.0 mi ESE 6.9 mph - N/A   Clear
7:53 PM 43.0 °F 36.4 °F 28.9 °F 58% 29.59 in 10.0 mi ESE 12.7 mph - N/A   Clear
8:53 PM 42.1 °F 35.2 °F 28.9 °F 60% 29.55 in 10.0 mi ESE 12.7 mph - N/A   Clear
9:53 PM 42.1 °F 36.1 °F 28.9 °F 60% 29.52 in 10.0 mi ESE 10.4 mph - N/A   Clear
10:53 PM 37.9 °F 31.5 °F 28.0 °F 68% 29.49 in 10.0 mi East 9.2 mph - N/A   Clear
11:53 PM 34.0 °F 26.6 °F 28.0 °F 79% 29.45 in 10.0 mi ENE 9.2 mph - N/A   Clear